Regional Weather Roundup
Issued by NWS

Home | Current Version | Previous Version | Text Only | Print | Product List | Glossary Off
Versions: 1 2 3 4 5 6 7 8 9 10 11 12 13 14 15 16 17 18 19 20 21 22 23 24 25 26 27 28 29 30 31 32 33 34 35 36 37 38 39 40 41 42 43 44 45 46 47 48 49 50

000
ASUS43 KMKX 210420
RWRWI

WISCONSIN REGIONAL WEATHER ROUNDUP
NATIONAL WEATHER SERVICE MILWAUKEE/SULLIVAN WI
1000 PM CST FRI JAN 20 2017

NOTE: "FAIR" INDICATES FEW OR NO CLOUDS BELOW 12,000 FEET WITH NO
SIGNIFICANT WEATHER AND/OR OBSTRUCTIONS TO VISIBILITY.

WIZ001-002-006>008-014>016-023>028-210500-
NORTHWEST WISCONSIN

CITY           SKY/WX    TMP DP  RH WIND       PRES   REMARKS
SUPERIOR ARPT  CLOUDY    34  34 100 E3        29.59S FOG
ASHLAND        CLOUDY    35  35 100 E3        29.62S
HAYWARD        CLOUDY    36  33  89 S9        29.59R WCI  29
SIREN          CLOUDY    35  35  99 SE6       29.58S FOG     WCI  30
CUMBERLAND     FOG       32  32 100 SE10      29.58S VSB 3/4 WCI  24
RICE LAKE      FOG       34  34  99 SE7       29.60F VSB 1   WCI  28
CHETEK         CLOUDY    34  34 100 SE7       29.60S FOG     WCI  28
LADYSMITH      CLOUDY    35  35  99 SE5       29.62S FOG     WCI  31
EAU CLAIRE     CLOUDY    35  34  96 SE5       29.59F FOG     WCI  31
MENOMONIE        N/A    N/A N/A N/A MISG        N/A
NEW RICHMOND   FOG       34  34 100 SE6       29.57F VSB 1   WCI  29
OSCEOLA        CLOUDY    35  35 100 SE5       29.60F FOG     WCI  31
$$

WIZ003>005-009-010-017-018-210500-
NORTH CENTRAL WISCONSIN

CITY           SKY/WX    TMP DP  RH WIND       PRES   REMARKS
MANITOWISH WTR CLOUDY    33  33 100 SE5       29.61R FOG     WCI  28
ARBOR VITAE    CLOUDY    37  36  96 SE6       29.62R FOG     WCI  32
WOODRUFF       CLOUDY    37  36  96 SE6       29.62R FOG     WCI  32
RHINELANDER    CLOUDY    34  34 100 SE7       29.63S FOG     WCI  28
EAGLE RIVER    LGT SNOW  33  33 100 SE5       29.62R WCI  29
LAND O LAKES   CLOUDY    34  34 100 SE5       29.63S FOG     WCI  30
PHILLIPS       CLOUDY    33  33 100 SE5       29.60F FOG     WCI  28
TOMAHAWK       CLOUDY    33  32  98 CALM      29.63S FOG
MEDFORD        CLOUDY    32  32  99 SE5       29.61S FOG     WCI  28
MERRILL        CLOUDY    33  33 100 SE5         N/A  FOG     WCI  29
$$

WIZ029-030-035-036-043>047-210500-
CENTRAL WISCONSIN

CITY           SKY/WX    TMP DP  RH WIND       PRES   REMARKS
WAUSAU         CLOUDY    33  33 100 SE7       29.61F FOG     WCI  27
MOSINEE        FOG       34  34 100 E6        29.63F VSB 1   WCI  29
MARSHFIELD     FOG       33  32  96 E6        29.60F VSB 3/4 WCI  28
STEVENS POINT  FOG       32  32 100 E5        29.64S VSB 1   WCI  27
WAUPACA        CLOUDY    36  34  94 CALM      29.64F FOG
WAUTOMA        CLOUDY    36  34  93 E3        29.65S FOG
WISC RAPIDS    CLOUDY    34  34 100 E5        29.63S FOG     WCI  30
CAMP DOUGLAS   FOG       36  34  93 SE8       29.61S VSB 1/2 WCI  29
$$

WIZ011>013-019>022-031-037>040-048>050-210500-
NORTHEAST WISCONSIN

CITY           SKY/WX    TMP DP  RH WIND       PRES   REMARKS
ANTIGO         CLOUDY    32  32 100 SE9       29.64S FOG     WCI  24
SHAWANO        CLOUDY    34  33  94 NE5       29.67F FOG     WCI  30
OCONTO         CLOUDY    32  32 100 CALM      29.68S VSB 3/4
STURGEON BAY   CLOUDY    34  34 100 CALM      29.69S FOG
GREEN BAY      FOG       35  35 100 CALM      29.67F VSB 3/4
MANITOWOC      CLOUDY    36  34  93 MISG      29.68F FOG
APPLETON       FOG       34  34 100 E5        29.63F VSB 1/4 WCI  30
CLINTONVILLE   CLOUDY    32  32 100 E3        29.66F FOG
OSHKOSH        FOG       34  33  96 E6        29.64S VSB 1/4 WCI  29
$$

WIZ032>034-041-042-053>061-210500-
SOUTHWEST WISCONSIN

CITY           SKY/WX    TMP DP  RH WIND       PRES   REMARKS
LA CROSSE      CLOUDY    39  36  89 SE6       29.60S WCI  35
SPARTA         CLOUDY    34  34 100 E3        29.62S FOG
VIROQUA        CLOUDY    34  34 100 SE9       29.58F VSB 1/4 WCI  27
BOSCOBEL       FOG       37  36  96 NE3       29.61F VSB 1/4
PRAIRIE DU CHI FOG       37  36  96 E3        29.59F VSB 3/4
PLATTEVILLE    CLOUDY    36  36 100 E9        29.59F VSB 1/4 WCI  29
$$

WIZ056-057-062-063-064-067-068-210500-
SOUTH CENTRAL WISCONSIN

CITY           SKY/WX    TMP DP  RH WIND       PRES   REMARKS
REEDSBURG      CLOUDY    35  35 100 CALM      29.61F FOG
BARABOO/DELLS  CLOUDY    35  35  99 SE3       29.62S FOG
LONE ROCK      FOG       36  35  96 E7        29.62F VSB 1/2 WCI  30
MINERAL POINT  FOG       37  37 100 E6        29.60S VSB 1/4 WCI  33
MADISON        DRZL/FOG  36  36 100 SE5       29.63S VSB 1/4 WCI  32
MIDDLETON      CLOUDY    37  37 100 E3        29.63S VSB 1/4
WATERTOWN      CLOUDY    36  36 100 E6        29.63S FOG     WCI  31
MONROE         SNOW      36  36 100 CALM      29.60F VSB<1/4
JANESVILLE     FOG       37  37 100 E5        29.62F VSB 1/4 WCI  34
$$

WIZ051-052-058>065-066-070>072-210500-
SOUTHEAST WISCONSIN

CITY           SKY/WX    TMP DP  RH WIND       PRES   REMARKS
MILWAUKEE      FOG       38  36  92 E6        29.65F VSB 1/4 WCI  33
WAUKESHA       FOG       34  34 100 CALM      29.65S VSB 1/2
MILWAUKEE/TIMM FOG       36  34  93 CALM      29.66S VSB 1
RACINE         FOG       38  36  92 SE6       29.67S VSB 1/4 WCI  33
KENOSHA        FOG       37  36  96 NE3       29.64F VSB 1/4
FOND DU LAC    CLOUDY    36  33  89 E5        29.65S FOG     WCI  32
SHEBOYGAN      CLOUDY    36  35  96 CALM      29.66F FOG
WEST BEND      FOG       34  34 100 CALM      29.65S VSB 1/4
JUNEAU         FOG       34  34  99 E5        29.65S VSB 3/4 WCI  30
$$

LSZ147-162-210500-
LAKE SUPERIOR

STATION/POSITION TIME  TEMP    WIND        PRES    WAVE
                       AIR SEA DIR/SP/G            HT/PER
                 (UTC) (F)     (DEG/KT/KT) (MB)    (FT/S)
DEVILS ISLAND    0400   34      80/ 10/ 11 1003.4F
PORT WING        0330   36     110/  2/  4 1002.7F
SAXON HARBOR     0340   33      CALM  /  1 1003.0S
$$

LMZ867-665-643>646-210500-
LAKE MICHIGAN

STATION/POSITION TIME  TEMP    WIND        PRES    WAVE
                       AIR SEA DIR/SP/G            HT/PER
                 (UTC) (F)     (DEG/KT/KT) (MB)    (FT/S)
NORTHPORT PIER   0340   33        CALM     1005.4S
SISTER BAY       0350   33        CALM       N/A
KEWAUNEE LAKESHO 0354   35     180/  2/  4 1004.8F
SHEBOYGAN LAKESH 0400   37     130/  7/  7 1004.9F
PORT WASHINGTON  0340   36      40/  2/  2 1005.4F
KENOSHA   LAKESH 0400   36      CALM  /  2 1004.1
$$

TC  - TEMPERATURE IN CELSIUS
VSB - VISIBILITY IN STATUTE MILES
WCI - WIND CHILL INDEX
HX  - HEAT INDEX




USA.gov is the U.S. government's official web portal to all federal, state and local government web resources and services.